This is the latest recevied weather packets stored in our database for station/object LROD. If no packets are shown the sender has not sent any weather packets the latest 10 day(s).
| Time | Temp. | Humidity | Pressure | Rain* | Wind** | Luminosity | Snow |
|---|---|---|---|---|---|---|---|
| 1777926811 | 13.89° C | 48% | 1016 hPa | - | - | - | - |
| 1777925909 | 12.22° C | 51% | 1016 hPa | - | - | - | - |
| 1777925010 | 12.22° C | 51% | 1016 hPa | - | - | - | - |
| 1777924109 | 15° C | 42% | 1016 hPa | - | - | - | - |
| 1777923210 | 15° C | 42% | 1016 hPa | - | - | - | - |
| 1777922309 | 12.22° C | 51% | 1016 hPa | - | - | - | - |
| 1777921409 | 12.22° C | 51% | 1016 hPa | - | - | - | - |
| 1777920509 | 15° C | 42% | 1016 hPa | - | - | - | - |
| 1777919620 | 15° C | 42% | 1016 hPa | - | - | - | - |
| 1777918710 | 18.89° C | 32% | 1016 hPa | - | - | - | - |
| 1777917810 | 18.89° C | 32% | 1016 hPa | - | - | - | - |
| 1777916909 | 21.11° C | 29% | 1016 hPa | - | - | - | - |
| 1777916010 | 21.11° C | 29% | 1016 hPa | - | - | - | - |
| 1777915109 | 22.78° C | 23% | 1016 hPa | - | - | - | - |
| 1777914209 | 22.78° C | 23% | 1016 hPa | - | - | - | - |
| 1777913310 | 23.89° C | 21% | 1016 hPa | - | - | - | - |
| 1777912424 | 23.89° C | 21% | 1016 hPa | - | - | - | - |
| 1777911518 | 23.89° C | 21% | 1016 hPa | - | - | - | - |
| 1777910610 | 23.89° C | 21% | 1016 hPa | - | - | - | - |
| 1777909709 | 25° C | 18% | 1016 hPa | - | - | - | - |
| 1777908809 | 25° C | 18% | 1016 hPa | - | - | - | - |
| 1777907910 | 25° C | 18% | 1016 hPa | - | - | - | - |
| 1777907009 | 25° C | 18% | 1016 hPa | - | - | - | - |
| 1777906109 | 25° C | 19% | 1016 hPa | - | - | - | - |
| 1777905210 | 25° C | 19% | 1016 hPa | - | - | - | - |
* Rain since midnight (hover to see other rain measurements)
** Current wind speed in m/s (hover to see current wind gust speed)